Regional Weather Roundup
Issued by NWS

Home | Current Version | Previous Version | Text Only | Print | Product List | Glossary Off
Versions: 1 2 3 4 5 6 7 8 9 10 11 12 13 14 15 16 17 18 19 20 21 22 23 24 25 26 27 28 29 30 31 32 33 34 35 36 37 38 39 40 41 42 43 44 45 46 47 48 49 50

000
ASUS43 KIND 261759
RWRIN

WEATHER ROUNDUP FOR INDIANA
NATIONAL WEATHER SERVICE INDIANAPOLIS IN
200 PM EDT MON SEP 26 2016

NOTE: "FAIR" INDICATES FEW OR NO CLOUDS BELOW 12,000 FEET WITH NO
SIGNIFICANT WEATHER AND/OR OBSTRUCTIONS TO VISIBILITY.

* - STATION DOES NOT REPORT WEATHER SUCH AS PRECIPITATION OR FOG.

+ - STATION NOT QUALITY CONTROLLED BY THE NATIONAL WEATHER SERVICE.
    USE DATA WITH CAUTION...ESPECIALLY DEWPOINT AND RELATIVE
    HUMIDITY OBSERVATIONS.

INZ001>003-010>013-019-020-261900-
NORTHWEST INDIANA

CITY           SKY/WX    TMP DP  RH WIND       PRES   REMARKS
GARY /AIRPORT/ MOSUNNY   70  37  30 W25G39    29.99F
KNOX *+        SUNNY     68   3   8 W17G24    29.99F
MONTICELLO +   SUNNY     69  35  27 W13G20    30.02F
6HR MIN TEMP:  58; 6HR MAX TEMP:  69;

RENSSELAER +   SUNNY     72  34  25 W16G26    30.01F

$$

LMZ046-743>745-261900-
SOUTHERN LAKE MICHIGAN

STATION/POSITION TIME  TEMP    WIND        PRES    WAVE
                       AIR SEA DIR/SP/G            HT
                 (UTC) (F)     (DEG/KT/KT) (MB)    (FT)
BURNS HARBOR     1712   65     270/ 21/ 25 1015.2F
MICHIGAN CITY    1700   63     230/ 25/ 29   N/A
5NW MICH CITY    1700   65 66  270/ 17/ 23   N/A     5

$$

INZ004-005-014>016-021>024-261900-
NORTH CENTRAL INDIANA

CITY           SKY/WX    TMP DP  RH WIND       PRES   REMARKS
ELKHART        MOSUNNY  N/A N/A N/A W14G21    29.96S
GOSHEN         LGT RAIN  67  41  38 W17G30    29.97F
6HR MIN TEMP:  59; 6HR MAX TEMP:  67; 6HR PCP:  0.01;

LOGANSPORT +   SUNNY     68  41  37 W14G20    30.03F
SOUTH BEND     SUNNY     67  41  38 W21G30    29.98S
6HR MIN TEMP:  58; 6HR MAX TEMP:  67;

WARSAW +       SUNNY     66  36  32 W16G25    29.99F

$$

INZ006>009-017-018-025>027-261900-
NORTHEAST INDIANA

CITY           SKY/WX    TMP DP  RH WIND       PRES   REMARKS
ANGOLA *+        N/A     68  61  77 W9        29.96F
AUBURN +       PTSUNNY   64  43  45 W10G16    29.99F
FORT WAYNE     CLOUDY    66  42  41 W14       30.00F
6HR MIN TEMP:  59; 6HR MAX TEMP:  66; 6HR PCP:  0.01;

KENDALLVILLE + MOSUNNY   66  46  49 W13G26    29.98S

$$

INZ028-029-035-036-043>045-051>053-261900-
WEST CENTRAL INDIANA

CITY           SKY/WX    TMP DP  RH WIND       PRES   REMARKS
CRAWFORDSVL +  SUNNY     67  43  41 NW10G21   30.07F
6HR MIN TEMP:  55; 6HR MAX TEMP:  67; 6HR PCP:  0.01;

GREENCASTLE +  CLOUDY    64  50  59 NW6       30.09S
LAFAYETTE      SUNNY     69  42  37 W20G26    30.04F
6HR MIN TEMP:  57; 6HR MAX TEMP:  69;

TERRE HAUTE    LGT RAIN  68  43  40 W9        30.09F
6HR MIN TEMP:  59; 6HR MAX TEMP:  69; 6HR PCP:  0.01;


$$

INZ030>032-037>040-046>048-054>057-064-065-261900-
CENTRAL INDIANA

CITY           SKY/WX    TMP DP  RH WIND       PRES   REMARKS
ANDERSON       MOSUNNY   64  54  68 W9        30.06
COLUMBUS       MOSUNNY   64  57  77 W8        30.08F
FRANKFORT +    PTSUNNY   70  45  40 W10G18    30.06F
6HR MIN TEMP:  60; 6HR MAX TEMP:  74;

INDIANAPOLIS   CLOUDY    66  50  56 W16       30.06F
6HR MIN TEMP:  59; 6HR MAX TEMP:  67; 6HR PCP: TRACE;

-EAGLE CREEK   CLOUDY    65  48  54 NW14      30.06F
6HR MIN TEMP:  59; 6HR MAX TEMP:  66; 6HR PCP: TRACE;

MT COMFORT *+  CLOUDY    64  52  63 W8G17     30.06F
SHELBYVILLE    CLOUDY    66  52  60 NW9       30.06F
6HR MIN TEMP:  60; 6HR MAX TEMP:  67; 6HR PCP:  0.12;

ZIONSVILLE +   PTSUNNY   64  45  50 W8G18     30.07F
6HR MIN TEMP:  57; 6HR MAX TEMP:  64;


$$

INZ033-034-041-042-049-050-058-059-261900-
EAST CENTRAL INDIANA

CITY           SKY/WX    TMP DP  RH WIND       PRES   REMARKS
MUNCIE         PTSUNNY   66  51  58 W13       30.04F
6HR MIN TEMP:  59; 6HR MAX TEMP:  66; 6HR PCP:  0.14;


$$

INZ060-061-067>069-081>083-085>088-261900-
SOUTHWEST INDIANA

CITY           SKY/WX    TMP DP  RH WIND       PRES   REMARKS
EVANSVILLE     CLOUDY    70  54  56 N7        30.13F
6HR MIN TEMP:  60; 6HR MAX TEMP:  70; 6HR PCP:  0.39;

HUNTINGBURG *+   N/A     68  55  64 NW8       30.12F
6HR MIN TEMP:  59; 6HR MAX TEMP:  68; 6HR PCP:  0.39;

WASHINGTON +   CLOUDY    67  54  64 MISG      30.11S
                                      6HR PCP:  0.67;


$$

INZ062-063-066-070>080-084-089>092-261900-
SOUTH CENTRAL AND SOUTHEAST INDIANA

CITY           SKY/WX    TMP DP  RH WIND       PRES   REMARKS
BLOOMINGTON    PTSUNNY   65  53  65 W10       30.09F
6HR MIN TEMP:  59; 6HR MAX TEMP:  65; 6HR PCP: TRACE;

MADISON *+     CLOUDY    64  54  68 W5        30.10F
SEYMOUR +      CLOUDY    68  52  56 NW8       30.08F

$$





USA.gov is the U.S. government's official web portal to all federal, state and local government web resources and services.